Location: Pian di Sc�
(43.6333°N, 11.5500°E)
Time: 18:44:20
(UTC+00:00)

USA 215 - Pass Details

Date: 07 August 2020
Orbit: 1102 x 1106 km, 123.0° (Epoch: 08 August)

Event Time Altitude Azimuth Distance (km) Brightness Sun altitude
Rises 03:22:16 0° 51° (NE) 3,928 8.5 -8.4°
Reaches altitude 10° 03:24:57 10° 44° (NE) 2,968 7.0 -8.0°
Maximum altitude 03:30:48 36° 340° (NNW) 1,665 4.4 -7.1°
Drops below altitude 10° 03:36:38 10° 277° (W) 2,960 5.0 -6.2°
Enters shadow 03:38:48 - 270° (W) 3,733 5.5 -5.9°
